Regional Weather Roundup
Issued by NWS Columbia, SC

Home | Current Version | Previous Version | Text Only | Print | Product List | Glossary On
Versions: 1 2 3 4 5 6 7 8 9 10 11 12 13 14 15 16 17 18 19 20 21 22 23 24 25 26 27 28 29 30 31 32 33 34 35 36 37 38 39 40 41 42 43 44 45 46 47 48 49 50
000
ASUS42 KCAE 162210
RWRCAE
REGIONAL WEATHER ROUNDUP
NATIONAL WEATHER SERVICE COLUMBIA SC
600 PM EDT MON OCT 16 2017

NOTE: "FAIR" INDICATES FEW OR NO CLOUDS BELOW 12,000 FEET WITH NO
SIGNIFICANT WEATHER AND/OR OBSTRUCTIONS TO VISIBILITY.

NOT ALL STATIONS ARE QUALITY CONTROLLED BY THE NATIONAL
WEATHER SERVICE. USE DATA WITH CAUTION...ESPECIALLY
DEWPOINT OBSERVATIONS.

SCZ001>056-GAZ040-063>065-077-162300-
...UPSTATE SOUTH CAROLINA...

CITY           SKY/WX    TMP DP  RH WIND       PRES   REMARKS
ANDERSON       SUNNY     67  39  35 NE15G24   30.09R
LIBERTY        CLEAR     66  43  43 NE15      30.11R
SPARTANBURG    CLEAR     64  41  42 N12G17    30.11R
CLEMSON        MOSUNNY   67  47  48 E9        30.10R
GREENVILLE     CLEAR     65  42  43 N12G21    30.13R
GREENWOOD      PTCLDY    68  55  63 NE10      30.10R
GREER          CLEAR     64  44  48 N8        30.12R
ROCK HILL      CLEAR     65  47  52 N14G24    30.11R
CHESTER        PTCLDY    64  43  45 N17       30.10S
LAURENS        MOCLDY    68  50  52 N13G18    30.09R


...CENTRAL SOUTH CAROLINA...

CITY           SKY/WX    TMP DP  RH WIND       PRES   REMARKS
COLUMBIA APT   MOCLDY    69  55  60 NE12      30.06R
COLUMBIA OWENS CLOUDY    69  55  60 VRB3      30.08R
MCENTIRE ANGB  MOCLDY    65  55  70 N6        30.07R
ORANGEBURG     CLOUDY    66  54  65 NE10G20   30.05R
SUMTER SHAW    MOCLDY    65  56  73 NE14      30.05R
NEWBERRY       MOCLDY    68  54  60 N10G18    30.11R
AIKEN          FAIR      68  59  73 N15       30.09R
BARNWELL         N/A     72  63  73 NE12      30.03R
MANNING        DRZL/FOG  63  41  45 MISG      30.06R VSB 3/4
CAMDEN         FAIR      66  50  55 N9        30.09R
LANCASTER      PTCLDY    64  46  52 NE5       30.10R
WINNSBORO      CLOUDY    64  52  63 N7        30.08R


...EASTERN AND COASTAL SOUTH CAROLINA...

CITY           SKY/WX    TMP DP  RH WIND       PRES   REMARKS
MYRTLE BEACH   CLOUDY    63  60  90 N20       30.04R
N MYRTLE BCH   CLOUDY    63  61  93 N17G25    30.02R
CONWAY         CLOUDY    61  59  94 N9G18     30.06R FOG
MARION         CLOUDY   N/A N/A N/A N15G21    30.08R
HARTSVILLE     CLOUDY    63  52  67 N6        30.08R
FLORENCE       CLOUDY    63  56  78 N13       30.08R
DARLINGTON     CLOUDY    63  54  72 N10       30.09R
CHARLESTON APT CLOUDY    68  66  93 N18       29.98R
MOUNT PLEASANT MOCLDY    70  64  83 N8G21     29.98R
WALTERBORO     CLOUDY    66  63  88 N16G24    30.02R
BEAUFORT       TSTM      74  73  97 N21G32    29.96R VSB 1


...EASTERN GEORGIA...

CITY           SKY/WX    TMP DP  RH WIND       PRES   REMARKS
AUGUSTA BUSH F PTCLDY    74  61  63 NE17      30.03R
AUGUSTA DANIEL CLOUDY    73  61  65 NE14      30.04R
THOMSON        PTSUNNY   76  60  57 E14       30.08R
WASHINGTON     FAIR      72  55  56 NE6       30.05R
CLAXTON        FAIR      83  70  65 W5        29.95S
SYLVANIA       MOCLDY    79  70  74 NE8       29.98R
STATESBORO     CLOUDY    80  65  61 N6        29.96R
SAVANNAH       MOCLDY    79  73  82 CALM      29.95S


...SOUTHERN NORTH CAROLINA...

CITY           SKY/WX    TMP DP  RH WIND       PRES   REMARKS
CHARLOTTE      PTCLDY    65  43  44 N15       30.12R
MONROE         CLEAR     64  46  52 NE15      30.10R
WADESBORO      PTCLDY    66  48  52 N13       30.10R HAZE
RUTHERFORDTON  CLEAR     63  40  43 N10G17    30.15R
ASHEVILLE      CLEAR     56  39  53 N22G31    30.18R

$$



USA.gov is the U.S. government's official web portal to all federal, state and local government web resources and services.